| time (UTC) | temp F | wind direction | speed knots | gust knots | rain 1hr in | rain 24hr in | rain mn in | humidity % | barometer mb |
| 20260505211613 | 62 | 312 | 8.7 | 18.2 | 0.00 | 0.00 | 0.00 | 39 | 998.9 |
| 20260505210055 | 63 | 240 | 7.8 | 17.4 | 0.00 | 0.00 | 0.00 | 38 | 999.0 |
| 20260505204555 | 64 | 264 | 7.0 | 15.6 | 0.00 | 0.00 | 0.00 | 38 | 999.1 |
| 20260505203055 | 63 | 272 | 6.1 | 20.9 | 0.00 | 0.00 | 0.00 | 38 | 999.3 |
| 20260505201606 | 64 | 283 | 9.6 | 21.7 | 0.00 | 0.00 | 0.00 | 37 | 999.3 |
| 20260505194601 | 59 | 274 | 6.1 | 20.0 | 0.00 | 0.00 | 0.00 | 42 | 999.4 |
| 20260505193050 | 60 | 260 | 6.1 | 14.8 | 0.00 | 0.00 | 0.00 | 40 | 999.4 |
| 20260505191553 | 60 | 202 | 7.0 | 14.8 | 0.00 | 0.00 | 0.00 | 39 | 999.4 |
| 20260505190054 | 62 | 269 | 7.0 | 16.5 | 0.00 | 0.00 | 0.00 | 36 | 999.6 |
| 20260505184545 | 60 | 219 | 3.5 | 7.8 | 0.00 | 0.00 | 0.00 | 39 | 999.5 |
| 20260505183049 | 59 | 274 | 4.3 | 11.3 | 0.00 | 0.00 | 0.00 | 39 | 999.8 |
| 20260505181545 | 57 | 304 | 1.7 | 7.8 | 0.00 | 0.00 | 0.00 | 41 | 999.6 |
| 20260505180043 | 59 | 225 | 4.3 | 8.7 | 0.00 | 0.00 | 0.00 | 38 | 999.8 |
| 20260505174546 | 57 | 283 | 3.5 | 11.3 | 0.00 | 0.00 | 0.00 | 40 | 1000.1 |
| 20260505173047 | 59 | 290 | 5.2 | 10.4 | 0.00 | 0.00 | 0.00 | 37 | 1000.1 |
| 20260505171541 | 59 | 236 | 3.5 | 8.7 | 0.00 | 0.00 | 0.00 | 37 | 1000.0 |
| 20260505170040 | 56 | 216 | 0.9 | 9.6 | 0.00 | 0.00 | 0.00 | 37 | 1000.2 |
| 20260505164538 | 56 | 28 | 2.6 | 11.3 | 0.00 | 0.00 | 0.00 | 37 | 1000.3 |
| 20260505163035 | 56 | 257 | 4.3 | 9.6 | 0.00 | 0.00 | 0.00 | 39 | 1000.5 |
| 20260505161532 | 55 | 301 | 5.2 | 10.4 | 0.00 | 0.00 | 0.00 | 41 | 1000.7 |
| 20260505153030 | 54 | 279 | 7.8 | 15.6 | 0.00 | 0.00 | 0.00 | 43 | 1000.8 |
| 20260505151529 | 54 | 288 | 7.0 | 12.2 | 0.00 | 0.00 | 0.00 | 41 | 1000.7 |
| 20260505124515 | 48 | 328 | 3.5 | 6.1 | 0.00 | 0.00 | 0.00 | 44 | 1000.7 |
| 20260505123011 | 48 | 351 | 1.7 | 5.2 | 0.00 | 0.00 | 0.00 | 44 | 1000.8 |
| 20260505121610 | 48 | 44 | 2.6 | 5.2 | 0.00 | 0.00 | 0.00 | 44 | 1000.5 |
| 20260505120006 | 49 | 293 | 2.6 | 8.7 | 0.00 | 0.00 | 0.00 | 42 | 1000.2 |
| 20260505114502 | 50 | 281 | 4.3 | 11.3 | 0.00 | 0.00 | 0.00 | 39 | 999.7 |
| 20260505113059 | 51 | 274 | 6.1 | 10.4 | 0.00 | 0.00 | 0.00 | 39 | 1000.2 |
| 20260505111557 | 51 | 264 | 4.3 | 9.6 | 0.00 | 0.00 | 0.00 | 39 | 1000.4 |
| 20260505110105 | 52 | 264 | 6.1 | 10.4 | 0.00 | 0.00 | 0.00 | 37 | 1000.1 |
| 20260505101548 | 52 | 260 | 4.3 | 7.8 | 0.00 | 0.00 | 0.00 | 39 | 1000.3 |
| 20260505100047 | 52 | 239 | 3.5 | 8.7 | 0.00 | 0.00 | 0.00 | 39 | 1000.2 |
| 20260505094543 | 52 | 260 | 3.5 | 7.0 | 0.00 | 0.00 | 0.00 | 39 | 1000.2 |
| 20260505093040 | 53 | 243 | 4.3 | 9.6 | 0.00 | 0.00 | 0.00 | 37 | 1000.4 |
| 20260505091539 | 53 | 250 | 3.5 | 8.7 | 0.00 | 0.00 | 0.00 | 37 | 1000.3 |
| 20260505090037 | 54 | 271 | 3.5 | 7.8 | 0.00 | 0.00 | 0.00 | 35 | 1000.4 |
| 20260505084542 | 55 | 296 | 4.3 | 12.2 | 0.00 | 0.00 | 0.00 | 34 | 1000.5 |
| 20260505083032 | 55 | 262 | 5.2 | 11.3 | 0.00 | 0.00 | 0.00 | 33 | 1000.3 |
| 20260505081530 | 56 | 303 | 7.8 | 13.9 | 0.00 | 0.00 | 0.00 | 32 | 1000.9 |
| 20260505080026 | 56 | 264 | 6.1 | 13.0 | 0.00 | 0.00 | 0.00 | 31 | 1000.9 |
| 20260505074524 | 56 | 265 | 4.3 | 8.7 | 0.00 | 0.00 | 0.00 | 30 | 1001.1 |
| 20260505073033 | 56 | 281 | 4.3 | 11.3 | 0.00 | 0.00 | 0.00 | 30 | 1000.9 |
| 20260505071519 | 57 | 231 | 4.3 | 10.4 | 0.00 | 0.00 | 0.00 | 29 | 1000.6 |
| 20260505070029 | 57 | 276 | 5.2 | 13.9 | 0.00 | 0.00 | 0.00 | 28 | 1000.5 |
| 20260505064515 | 58 | 300 | 7.8 | 13.0 | 0.00 | 0.00 | 0.00 | 28 | 1000.7 |
| 20260505063014 | 57 | 260 | 5.2 | 13.0 | 0.00 | 0.00 | 0.00 | 28 | 1000.8 |
| 20260505061514 | 57 | 274 | 4.3 | 8.7 | 0.00 | 0.00 | 0.00 | 29 | 1000.9 |
| 20260505060007 | 58 | 276 | 4.3 | 9.6 | 0.00 | 0.00 | 0.00 | 28 | 1001.1 |
| 20260505054506 | 57 | 293 | 3.5 | 7.0 | 0.00 | 0.00 | 0.00 | 30 | 1000.9 |
| 20260505053005 | 57 | 258 | 2.6 | 6.1 | 0.00 | 0.00 | 0.00 | 30 | 1000.8 |
| 20260505051508 | 58 | 281 | 3.5 | 7.8 | 0.00 | 0.00 | 0.00 | 29 | 1000.7 |
| 20260505041504 | 57 | 213 | 0.0 | 2.6 | 0.00 | 0.00 | 0.00 | 29 | 1001.0 |
| 20260505040006 | 57 | 300 | 0.9 | 3.5 | 0.00 | 0.00 | 0.00 | 29 | 1001.0 |
| 20260505034503 | 57 | 284 | 0.9 | 3.5 | 0.00 | 0.00 | 0.00 | 29 | 1000.9 |
| 20260505033003 | 59 | 269 | 1.7 | 6.1 | 0.00 | 0.00 | 0.00 | 27 | 1000.9 |
| 20260505031503 | 60 | 291 | 3.5 | 7.8 | 0.00 | 0.00 | 0.00 | 26 | 1000.6 |
| 20260505030002 | 61 | 305 | 2.6 | 10.4 | 0.00 | 0.00 | 0.00 | 24 | 1000.3 |
| 20260505024501 | 62 | 317 | 3.5 | 10.4 | 0.00 | 0.00 | 0.00 | 23 | 1000.1 |
| 20260505023003 | 63 | 309 | 5.2 | 10.4 | 0.00 | 0.00 | 0.00 | 22 | 1000.1 |
| 20260505021601 | 63 | 340 | 6.1 | 12.2 | 0.00 | 0.00 | 0.00 | 21 | 999.9 |
| 20260505020101 | 64 | 274 | 7.0 | 16.5 | 0.00 | 0.00 | 0.00 | 19 | 999.8 |
| 20260505014609 | 65 | 323 | 7.0 | 13.0 | 0.00 | 0.00 | 0.00 | 18 | 999.7 |
| 20260505013058 | 65 | 284 | 7.8 | 17.4 | 0.00 | 0.00 | 0.00 | 17 | 999.5 |
| 20260505011606 | 66 | 228 | 6.1 | 13.0 | 0.00 | 0.00 | 0.00 | 16 | 999.2 |
| 20260505010057 | 67 | 283 | 7.8 | 17.4 | 0.00 | 0.00 | 0.00 | 16 | 999.3 |
| 20260505004556 | 68 | 311 | 7.8 | 13.9 | 0.00 | 0.00 | 0.00 | 16 | 999.5 |
| 20260505003055 | 68 | 283 | 6.1 | 15.6 | 0.00 | 0.00 | 0.00 | 15 | 999.5 |
| 20260505001554 | 68 | 281 | 7.8 | 16.5 | 0.00 | 0.00 | 0.00 | 16 | 999.6 |
| 20260505000107 | 69 | 281 | 6.1 | 13.0 | 0.00 | 0.00 | 0.00 | 16 | 999.7 |
| 20260504234552 | 69 | 285 | 4.3 | 14.8 | 0.00 | 0.00 | 0.00 | 17 | 999.8 |
| 20260504233106 | 70 | 281 | 7.8 | 13.9 | 0.00 | 0.00 | 0.00 | 17 | 999.7 |
| 20260504231551 | 71 | 257 | 7.8 | 16.5 | 0.00 | 0.00 | 0.00 | 16 | 999.7 |
| 20260504230049 | 71 | 300 | 7.8 | 16.5 | 0.00 | 0.00 | 0.00 | 16 | 999.9 |
| 20260504224553 | 71 | 276 | 7.0 | 15.6 | 0.00 | 0.00 | 0.00 | 16 | 1000.0 |
| 20260504223100 | 72 | 304 | 6.1 | 14.8 | 0.00 | 0.00 | 0.00 | 16 | 1000.2 |
| 20260504221544 | 71 | 297 | 7.8 | 14.8 | 0.00 | 0.00 | 0.00 | 16 | 1000.5 |
| 20260504220042 | 70 | 279 | 7.0 | 18.2 | 0.00 | 0.00 | 0.00 | 16 | 1000.9 |
| 20260504214541 | 71 | 259 | 10.4 | 19.1 | 0.00 | 0.00 | 0.00 | 16 | 1000.7 |
| 20260504213051 | 72 | 290 | 10.4 | 20.9 | 0.00 | 0.00 | 0.00 | 15 | 1001.1 |